Погода в Лужке

Россия / Костромская область     58°20′50″N   41°29′42″E
темп.,
°C
ветер,
м/с
пор.,
м/с
влажн.,
%
обл.,
%
осадки,
мм/ч
давл.,
гПа
погр.,
м
15 апреля, чт
чт1500:00+9юз2376100 0.0 101838
03:00+8с2592100 0.0 101991
06:00+9ссв3897100 0.0 1019419
09:00+8ссв4991100 0.0 1021411
12:00+8ссв5984100 0.0 1022593
15:00+8св5978100 0.0 1023730
18:00+7св51180100 0.0 1024702
21:00+6всв51377100 0.0 1025629
16 апреля, пт
пт1600:00+5св4128184 0.0 1026624
03:00+3всв51276100 0.0 1027447
06:00+2всв4127487 0.0 1028443
09:00+6всв5105655 0.0 1028608
12:00+10всв573828 0.0 10281025
15:00+11всв573449 0.0 10281247
18:00+10всв48465 0.0 1028528
21:00+5всв310665 0.0 1029237
17 апреля, сб
сб1700:00+3всв310745 0.0 1030230
03:00+2св310775 0.0 1031211
06:00+1всв39775 0.0 1032227
09:00+7всв47542 0.0 1032579
12:00+10всв46400 0.0 10311285
15:00+12св45383 0.0 10301546
18:00+10св36505 0.0 1029390
21:00+5св27690 0.0 1030122
18 апреля, вс
вс1800:00+4св28765 0.0 1031145
03:00+2св25795 0.0 103196
06:00+2ссв26805 0.0 1032127
09:00+8ссв355847 0.0 1032564
12:00+11ссв454568 0.0 10311370
15:00+12ссв4542100 0.0 10311728
18:00+10св3653100 0.0 1032329
21:00+6в4971100 0.0 1034449
19 апреля, пн
пн1900:00+4в2678100 0.0 1035194
03:00+2в277679 0.0 1036201
06:00+1вюв277087 0.0 1037194
09:00+5юв454790 0.0 1037656
12:00+8юв343599 0.0 10371439
15:00+9юв343299 0.0 10361642
18:00+8ююв2442100 0.0 1035250
21:00+3ююв235533 0.0 103648